Weather History for Spokane, WA

Change the Weather History Date:

Saturday, November 6, 2010

  Actual Average Record
Temperature  
Mean Temperature 52 °F 39 °F  
Max Temperature 60 °F 46 °F 61 °F (2006)
Min Temperature 43 °F 32 °F 9 °F (2003)
Degree Days  
Heating Degree Days 13 26  
Month to date heating degree days 102 149  
Since 1 July heating degree days 827 937  
Cooling Degree Days 0 0  
Month to date cooling degree days 0 0  
Year to date cooling degree days 380 450  
Growing Degree Days 2 (Base 50)    
Moisture  
Dew Point 45 °F    
Average Humidity 78    
Maximum Humidity 96    
Minimum Humidity 60    
Precipitation  
Precipitation 0.01 in 0.07 in 0.84 in (1903)
Month to date precipitation 0.45 0.39  
Year to date precipitation 13.19 12.35  
Snow  
Snow 0.00 in 0.10 in 0.30 in (1975)
Month to date snowfall 0.0 0.5  
Since 1 July snowfall 0.0 0.6  
Since 1 September snowfall 0.0 0.6  
Snow Depth 0.00 in    
Sea Level Pressure  
Sea Level Pressure 29.80 in    
Wind  
Wind Speed 2 mph (East)    
Max Wind Speed 9 mph    
Max Gust Speed 12 mph    
Visibility 9 miles    
Events Fog    
T = Trace of Precipitation, MM = Missing Value Source: NWS Daily Summary

Daily Weather History Graph

Daily Weather History Graph

Search for Another Location

Airport:

Trip Planner

Search our weather history database for the weather conditions in past years. The results will help you decide how hot, cold, wet, or windy it might be!

Date:

Astronomy

Nov. 06, 2010 Rise Set
Actual Time 7:41 AM PDT 5:24 PM PDT
Civil Twilight 7:09 AM PDT 5:57 PM PDT
Nautical Twilight 6:32 AM PDT 6:34 PM PDT
Astronomical Twilight 5:56 AM PDT 7:10 PM PDT
Moon 8:33 AM PDT (11/6) 5:26 PM PDT (11/6)
Length of Visible Light 10h 48m
Length of Day
9h 43m
New Moon, 0% of the Moon is Illuminated
Nov 6
New Moon
Nov 13
First Quarter
Nov 21
Full
Nov 28
Last Quarter
Dec 5
New

Hourly Weather History & Observations

Time (PDT) Temp. Windchill Dew Point Humidity Pressure Visibility Wind Dir Wind Speed Gust Speed Precip Events Conditions
12:53 AM 45.0 °F - 42.1 °F 90% 29.86 in 10.0 mi Calm Calm - N/A   Overcast
1:53 AM 44.1 °F - 42.1 °F 93% 29.86 in 8.0 mi Calm Calm - N/A   Overcast
2:53 AM 45.0 °F 43.5 °F 42.1 °F 90% 29.85 in 8.0 mi ESE 3.5 mph - N/A   Overcast
3:53 AM 48.0 °F - 43.0 °F 83% 29.83 in 10.0 mi Variable 5.8 mph - N/A   Overcast
4:53 AM 48.0 °F - 43.0 °F 83% 29.83 in 10.0 mi ESE 5.8 mph - N/A   Overcast
5:53 AM 45.0 °F - 42.1 °F 90% 29.84 in 10.0 mi Calm Calm - N/A   Overcast
6:53 AM 45.0 °F - 43.0 °F 93% 29.84 in 9.0 mi Calm Calm - N/A   Overcast
7:53 AM 43.0 °F - 41.0 °F 93% 29.84 in 7.0 mi Calm Calm - N/A Fog Overcast
8:53 AM 44.1 °F - 43.0 °F 96% 29.84 in 7.0 mi Calm Calm - N/A Fog Mostly Cloudy
9:53 AM 46.9 °F - 44.1 °F 90% 29.84 in 7.0 mi Calm Calm - N/A Fog Mostly Cloudy
10:53 AM 50.0 °F - 45.0 °F 83% 29.84 in 9.0 mi Calm Calm - N/A   Mostly Cloudy
11:53 AM 54.0 °F - 46.0 °F 75% 29.84 in 8.0 mi ENE 3.5 mph - N/A   Mostly Cloudy
12:53 PM 57.2 °F - 46.4 °F 67% 29.80 in 10.0 mi SE 4.6 mph - N/A   Mostly Cloudy
1:53 PM 60.1 °F - 46.0 °F 60% 29.80 in 10.0 mi Calm Calm - N/A   Mostly Cloudy
2:53 PM 57.9 °F - 46.9 °F 67% 29.79 in 9.0 mi ENE 4.6 mph - N/A   Mostly Cloudy
3:53 PM 57.0 °F - 46.9 °F 69% 29.78 in 10.0 mi NNE 4.6 mph - 0.00 in   Mostly Cloudy
4:53 PM 54.0 °F - 46.0 °F 75% 29.78 in 9.0 mi ENE 3.5 mph - N/A   Mostly Cloudy
5:53 PM 52.0 °F - 46.0 °F 80% 29.77 in 10.0 mi Calm Calm - N/A   Overcast
6:53 PM 51.8 °F - 46.4 °F 82% 29.76 in 9.0 mi Calm Calm - N/A   Overcast
7:53 PM 52.0 °F - 46.0 °F 80% 29.76 in 10.0 mi ESE 4.6 mph - N/A   Overcast
8:53 PM 52.0 °F - 46.0 °F 80% 29.74 in 10.0 mi SE 4.6 mph - N/A   Overcast
9:53 PM 51.1 °F - 46.9 °F 86% 29.74 in 10.0 mi NW 3.5 mph - N/A   Overcast
10:53 PM 48.9 °F - 46.9 °F 93% 29.73 in 8.0 mi Calm Calm - 0.00 in   Overcast
11:53 PM 48.0 °F - 46.9 °F 96% 29.72 in 7.0 mi Calm Calm - N/A   Overcast